Location: Wellington
(41.3000°S, 174.7830°E)
Time: 03:12:45
(UTC+12:00)

Gbstr 26 Del rocket - Pass Details

Date: 24 January 2019
Orbit: 493 x 1264 km, 51.8° (Epoch: 17 April)

Event Time Altitude Azimuth Distance (km) Brightness Sun altitude
Rises 23:40:40 0° 233° (SW) 2,732 7.5 -24.1°
Reaches altitude 10° 23:43:12 10° 221° (SW) 1,774 6.4 -24.4°
Maximum altitude 23:46:39 29° 159° (SSE) 961 4.4 -24.7°
Enters shadow 23:47:20 27° 139° (SE) 1,001 4.3 -24.7°
